sat.trackr.live / text

‹ back to catalog

STARLINK-35250

NORAD 65603 · 2025-207M

PAYLOAD ACTIVE UNKNOWN

§ Identity

Operator
Country
US
Launch date
2025-09-13
Launch site
AFWTR
Launch vehicle
Mass (kg)
RCS (m²)

Purposes: comms

External: N2YO · Heavens-Above · Gunter

§ Orbital elements

Epoch: 2026-05-25T04:19:33.993120Z

Period
95.64 min
Inclination
97.4462°
Eccentricity
0.0002335
Mean motion
15.05661152 rev/d
Perigee alt
547.9 km
Apogee alt
551.1 km
Semi-major
6,927.6 km
B*
2.8594e-4
RAAN
213.7326°
Arg perigee
145.3997°
Mean anomaly
214.7383°
Rev number
3,977

§ Raw data

STARLINK-352501 65603U 25207M   26145.18025455  .00004071  00000+0  28594-3 0  99962 65603  97.4462 213.7326 0002335 145.3997 214.7383 15.05661152 39775

JSON: /api/v1/satellites/65603 · /tle

For live sub-satellite position, see the globe view (requires WebGL).

§ Visibility from observer

Set your observer location to see the next 7 days of passes ≥ 10°. The values pass through the URL so the page stays shareable.

No JS? Fill the form by hand. The geolocation button needs JavaScript.